Regional Weather Roundup
Issued by NWS

Home | Current Version | Previous Version | Graphics & Text | Print | Product List | Glossary On
Versions: 1 2 3 4 5 6 7 8 9 10 11 12 13 14 15 16 17 18 19 20 21 22 23 24 25 26 27 28 29 30 31 32 33 34 35 36 37 38 39 40 41 42 43 44 45 46 47 48 49 50
000
ASUS43 KMPX 042310
RWRMN
WEATHER ROUNDUP FOR MINNESOTA
NATIONAL WEATHER SERVICE TWIN CITIES/CHANHASSEN MN
600 PM CDT SAT JUL 04 2015


NOTE: "FAIR" INDICATES FEW OR NO CLOUDS BELOW 12,000 FEET WITH NO
SIGNIFICANT WEATHER AND/OR OBSTRUCTIONS TO VISIBILITY. N/A MEANS
CURRENT SKY AND/OR WEATHER CONDITIONS ARE NOT AVAILABLE.

MNZ060>063-068>070-050000-
   Twin Cities Metro

CITY           SKY/WX    TMP DP  RH WIND       PRES   REMARKS
TWIN CITIES    MOSUNNY   84  63  49 S12       29.90F HAZE
ST PAUL        SUNNY     83  65  54 S10       29.89F HAZE
CRYSTAL        PTSUNNY   86  63  45 S10       29.88F HAZE
BLAINE         MOSUNNY   86  64  48 S8        29.89F
LAKEVILLE      SUNNY     81  66  61 S8        29.91F HAZE
EDEN PRAIRIE   MOSUNNY   83  66  56 S13       29.89F HAZE
SOUTH ST PAUL  SUNNY     83  62  48 S9        29.90F HAZE
LAKE ELMO      FAIR      82  64  54 S9        29.91F HAZE
$$
MNZ001>005-007-008-013>017-022>024-027-028-050000-
   Northwest Minnesota

CITY           SKY/WX    TMP DP  RH WIND       PRES   REMARKS
BEMIDJI        SUNNY     81  63  55 S10G16    29.84F HAZE
HALLOCK        SUNNY     82  68  61 S17G25    29.67F HAZE
ROSEAU         SUNNY     81  68  65 S15       29.75F HAZE
WARROAD        SUNNY     81  66  61 S8        29.76F HAZE
THIEF RVR FALL SUNNY     82  64  54 S15       29.77F
CROOKSTON      SUNNY     82  66  57 S15G22    29.75F
FOSSTON        SUNNY     81  64  57 S15       29.81F HAZE
DETROIT LAKES  SUNNY     81  64  57 S14       29.84F
MOORHEAD       SUNNY     82  66  57 S15G23    29.79F
PARK RAPIDS    CLOUDY    83  65  54 S12       29.85F HAZE
MAHNOMEN       FAIR      80  66  62 S14       29.81F
$$
MNZ006-009>011-018-025>026-050000-
   North Central Minnesota

CITY           SKY/WX    TMP DP  RH WIND       PRES   REMARKS
BAUDETTE       SUNNY     80  61  52 S13       29.78F HAZE
FLAG ISLAND    SUNNY     73  66  78 S16       29.75F HAZE
INTL FALLS     SUNNY     79  58  48 S8        29.83F
WASKISH        SUNNY     79  64  61 S6        29.82F
BIG FORK       SUNNY     79  61  53 S8        29.86F
LONGVILLE      SUNNY     81  63  54 S7        29.87F HAZE
GRAND RAPIDS   SUNNY     79  57  47 S8        29.89F
CRANE LAKE     SUNNY     79  54  41 S5        29.88F
ORR            SUNNY     81  54  39 S5        29.84F
COOK           SUNNY     81  55  41 S6        29.88F
WALKER         FAIR      80  64  57 S8        29.85F HAZE
$$
MNZ012-019>021-037-050000-
   Northeast Minnesota

CITY           SKY/WX    TMP DP  RH WIND       PRES   REMARKS
DULUTH         SUNNY     72  59  63 SE10      29.93F
ELY            SUNNY     79  55  44 S10       29.90F
HIBBING        SUNNY     80  57  45 S8        29.89F
DULUTH HARBOR  SUNNY     66  61  82 NE9       29.93F
TWO HARBORS    SUNNY     75  63  64 E7        29.91F
SILVER BAY     SUNNY     72  55  56 E6        29.92F
GRAND MARAIS     N/A     53  50  89 NE6       29.96F
G MARAIS ARPRT MOSUNNY   66  50  55 S5        29.99F
$$
MNZ029>031-032-039>041-046>048-054>057-064-050000-
   West Central Minnesota

CITY           SKY/WX    TMP DP  RH WIND       PRES   REMARKS
FERGUS FALLS   SUNNY     82  64  54 S17G23    29.81F
WHEATON        SUNNY     81  64  57 SE15      29.82F
MORRIS         SUNNY     84  64  51 S14       29.84F
ALEXANDRIA     SUNNY     81  65  58 S13G20    29.89F
ELBOW LAKE     FAIR      81  65  57 S17       29.84F
WADENA         MOSUNNY   81  66  61 S12       29.86F
GLENWOOD       SUNNY     81  66  61 S14       29.89F
APPLETON       SUNNY     86  61  42 S9        29.85S
BENSON         SUNNY     82  63  51 S8        29.86F
ORTONVILLE     SUNNY     82  64  54 S10       29.83F
MADISON        SUNNY     82  61  47 S12       29.85F
WILLMAR          N/A     82  66  57 S3        29.89F
$$
MNZ033>034-036-042>043-049>051-058-059-050000-
   Central Minnesota

CITY           SKY/WX    TMP DP  RH WIND       PRES   REMARKS
ST CLOUD       PTSUNNY   83  67  58 S12       29.88F
SAUK CENTRE    FAIR      81  67  64 S10G16    29.88F
PAYNESVILLE    SUNNY     78  65  65 SE8       29.89F
AITKIN         SUNNY     81  64  57 S7        29.87F HAZE
PINE RIVER       N/A     81  64  57 S9        29.90F HAZE
BRAINERD       CLOUDY    83  63  50 S7        29.88F HAZE
STAPLES        SUNNY     82  63  51 S9        29.87S HAZE
LONG PRAIRIE   FAIR      79  64  61 S12       29.88F
LITTLE FALLS   SUNNY     82  63  51 S8        29.88S HAZE
LITCHFIELD     SUNNY     82  70  65 S3        29.89S
BUFFALO        SUNNY     82  65  55 S7        29.90F
MAPLE LAKE     MOSUNNY   82  69  64 S7        29.90S
$$
MNZ037-044-045-052-053-050000-
   East Central Minnesota

CITY           SKY/WX    TMP DP  RH WIND       PRES   REMARKS
PRINCETON      MOSUNNY   84  68  58 S9        29.88F
MORA           SUNNY     79  61  53 SE6       29.90F HAZE
CAMBRIDGE      SUNNY     84  64  51 S6        29.87F
RUSH CITY      SUNNY     81  65  58 S6        29.89F
MOOSE LAKE     SUNNY     79  59  50 S5        29.88F HAZE
HINCKLEY       FAIR      81  64  57 S7        29.89F HAZE
CLOQUET        SUNNY     73  59  60 SE5       29.92F
MCGREGOR       MOSUNNY   79  61  53 S7        29.89F
$$
MNZ071>073-080-081-089-090-097-098-050000-
   Southwest Minnesota

CITY           SKY/WX    TMP DP  RH WIND       PRES   REMARKS
MONTEVIDEO     SUNNY     82  66  57 SW10      29.87F
GRANITE FALLS  SUNNY     82  67  59 S9        29.89S
CANBY          SUNNY     82  62  51 S9        29.87F
MARSHALL       SUNNY     82  61  47 S13         N/A
REDWOOD FALLS  SUNNY     83  64  52 S15       29.88F HAZE
OLIVIA         SUNNY     79  61  53 S13       29.89S
PIPESTONE      SUNNY     81  63  54 S12       29.91F
WINDOM         MOSUNNY   81  61  50 S9        29.92F
WORTHINGTON    SUNNY     81  61  50 S10       29.92F
JACKSON        MOSUNNY   81  61  50 S12       29.94F
TRACY          SUNNY     82  63  52 S12G17    29.89F
SLAYTON        SUNNY     80  60  49 S14       29.92F
$$
MNZ065>067-074>077-082>085-091>093-050000-
   South Central Minnesota

CITY           SKY/WX    TMP DP  RH WIND       PRES   REMARKS
MANKATO        SUNNY     81  63  54 S10       29.92F
NEW ULM        MOSUNNY   81  63  54 S10       29.90F
ST JAMES       MOSUNNY   82  64  54 S9        29.92F
FAIRMONT       MOSUNNY   79  61  53 S12       29.93F
GLENCOE        SUNNY     82  67  60 S9        29.90F
FARIBAULT      SUNNY     81  64  57 S7        29.93F
OWATONNA       MOSUNNY   81  61  50 S9        29.94F
WASECA         SUNNY     77  61  57 S8        29.95F
ALBERT LEA     SUNNY     81  61  50 S8        29.95F
$$
MNZ078>079-086>088-094>096-050000-
   Southeast Minnesota

CITY           SKY/WX    TMP DP  RH WIND       PRES   REMARKS
ROCHESTER      SUNNY     79  64  60 S12       29.97F
RED WING       SUNNY     84  63  48 S3        29.91F HAZE
STANTON        SUNNY     82  64  54 SW9       29.91F
DODGE CENTER   MOSUNNY   79  64  61 S10       29.96F
WINONA         SUNNY     81  63  54 SW6       29.94S
AUSTIN         MOSUNNY   81  63  54 S6        29.96F
PRESTON        SUNNY     77  62  59 SW7       29.99S
$$
ABBREVIATIONS USED IN REMARKS
   TC - TEMPERATURES IN CELSIUS
  WCI - WIND CHILL INDEX
   HX - HEAT INDEX
  VSB - VISIBILITY
$$



USA.gov is the U.S. government's official web portal to all federal, state and local government web resources and services.